Weather History for KERI - October, 2014

Change the Weather History Date:

Wednesday, October 1, 2014

  Actual Average Record
Temperature  
Mean Temperature 62 °F 58 °F  
Max Temperature 70 °F 66 °F 86 °F (1927)
Min Temperature 54 °F 50 °F 36 °F (1956)
Degree Days  
Heating Degree Days 3 8  
Month to date heating degree days 3 8  
Since 1 July heating degree days 120 132  
Cooling Degree Days 0 1  
Month to date cooling degree days 0 1  
Year to date cooling degree days 596 630  
Growing Degree Days 12 (Base 50)    
Moisture  
Dew Point 56 °F    
Average Humidity 80    
Maximum Humidity 93    
Minimum Humidity 66    
Precipitation  
Precipitation 0.00 in 0.15 in 2.24 in (1945)
Month to date precipitation 0.00 0.15  
Year to date precipitation 30.50 30.59  
Snow  
Snow 0.00 in 0.00 in - ()
Month to date snowfall 0.0 0.0  
Since 1 July snowfall 0.0 0.0  
Since 1 September snowfall 0.0 0.0  
Snow Depth 0.00 in    
Sea Level Pressure  
Sea Level Pressure 29.99 in    
Wind  
Wind Speed 5 mph (NW)    
Max Wind Speed 14 mph    
Max Gust Speed 18 mph    
Visibility 9 miles    
Events Rain    
T = Trace of Precipitation, MM = Missing Value Source: NWS Daily Summary

Daily Weather History Graph

Daily Weather History Graph

Search for Another Location

Airport or City:

Trip Planner

Search our weather history database for the weather conditions in past years. The results will help you decide how hot, cold, wet, or windy it might be!

Date:

Astronomy

Oct. 01, 2014 Rise Set
Actual Time 7:17 AM EDT 7:02 PM EDT
Civil Twilight 6:49 AM EDT 7:30 PM EDT
Nautical Twilight 6:17 AM EDT 8:02 PM EDT
Astronomical Twilight 5:44 AM EDT 8:35 PM EDT
Moon 2:21 PM EDT No Moon Set
Length of Visible Light 12h 40m
Length of Day
11h 44m
Waxing Crescent, 48% of the Moon is Illuminated
Oct 1
Waxing Crescent
Oct 1
First Quarter
Oct 8
Full
Oct 15
Last Quarter
Oct 23
New

Hourly Weather History & Observations

Time (EDT) Temp. Dew Point Humidity Pressure Visibility Wind Dir Wind Speed Gust Speed Precip Events Conditions
12:51 AM 55.0 °F 53.1 °F 93% 29.98 in 10.0 mi SSW 3.5 mph - N/A   Clear
1:51 AM 57.0 °F 52.0 °F 83% 29.88 in 10.0 mi South 5.8 mph - N/A   Clear
2:20 AM 55.4 °F 51.8 °F 88% 29.99 in 10.0 mi Calm Calm - N/A   Mostly Cloudy
2:51 AM 55.9 °F 53.1 °F 90% 29.99 in 10.0 mi SSW 3.5 mph - N/A   Overcast
3:43 AM 55.4 °F 53.6 °F 94% 29.98 in 10.0 mi South 5.8 mph - N/A   Overcast
3:51 AM 57.0 °F 54.0 °F 89% 29.98 in 10.0 mi South 4.6 mph - N/A   Overcast
4:10 AM 57.2 °F 53.6 °F 88% 29.99 in 10.0 mi South 3.5 mph - N/A   Overcast
4:46 AM 57.2 °F 55.4 °F 94% 29.99 in 10.0 mi Calm Calm - N/A   Overcast
4:51 AM 57.9 °F 55.0 °F 90% 29.99 in 10.0 mi Calm Calm - N/A   Overcast
5:06 AM 57.2 °F 55.4 °F 94% 29.99 in 10.0 mi Calm Calm - N/A   Overcast
5:51 AM 57.0 °F 54.0 °F 89% 29.99 in 10.0 mi Calm Calm - N/A   Scattered Clouds
6:51 AM 55.0 °F 53.1 °F 93% 30.00 in 9.0 mi Calm Calm - N/A   Clear
8:39 AM 57.2 °F 55.4 °F 94% 30.02 in 5.0 mi SE 4.6 mph - N/A   Scattered Clouds
8:42 AM 62.6 °F 57.2 °F 82% 29.92 in 2.0 mi NW 9.2 mph - 0.03 in Rain Heavy Rain
8:51 AM 59.0 °F 55.9 °F 90% 30.02 in 6.0 mi ESE 4.6 mph - N/A   Partly Cloudy
9:51 AM 62.1 °F 55.9 °F 80% 30.04 in 10.0 mi SSE 8.1 mph - N/A   Clear
10:51 AM 60.1 °F 55.9 °F 86% 29.91 in 5.0 mi SSE 5.8 mph - 0.16 in Rain Rain
11:06 AM 66.2 °F 55.4 °F 68% 30.06 in 10.0 mi Calm Calm - N/A   Mostly Cloudy
11:16 AM 64.4 °F 55.4 °F 73% 30.06 in 10.0 mi NNW 6.9 mph - N/A   Mostly Cloudy
11:36 AM 64.4 °F 55.4 °F 73% 30.06 in 10.0 mi North 4.6 mph - N/A   Scattered Clouds
11:44 AM 64.4 °F 55.4 °F 73% 30.05 in 10.0 mi NNW 3.5 mph - N/A   Mostly Cloudy
11:51 AM 66.0 °F 57.0 °F 73% 30.05 in 9.0 mi Variable 4.6 mph - N/A   Mostly Cloudy
12:44 PM 69.8 °F 57.2 °F 64% 30.04 in 10.0 mi Calm Calm - N/A   Scattered Clouds
12:51 PM 70.0 °F 57.0 °F 63% 30.04 in 10.0 mi North 4.6 mph - N/A   Partly Cloudy
1:06 PM 66.2 °F 57.2 °F 73% 30.04 in 10.0 mi NNW 8.1 mph - N/A   Mostly Cloudy
1:28 PM 68.0 °F 57.2 °F 68% 30.04 in 10.0 mi North 10.4 mph - N/A   Scattered Clouds
1:51 PM 63.0 °F 57.0 °F 81% 29.90 in 10.0 mi South 9.2 mph - 0.00 in Rain Light Rain
2:51 PM 68.0 °F 57.9 °F 70% 30.03 in 10.0 mi NE 8.1 mph - N/A   Partly Cloudy
3:51 PM 64.9 °F 59.0 °F 81% 29.90 in 10.0 mi West 8.1 mph - N/A   Mostly Cloudy
4:28 PM 66.2 °F 59.0 °F 78% 29.90 in 10.0 mi WNW 8.1 mph - N/A   Overcast
4:46 PM 64.4 °F 57.2 °F 77% 29.90 in 10.0 mi WNW 8.1 mph - N/A   Overcast
4:51 PM 64.9 °F 59.0 °F 81% 29.91 in 10.0 mi WNW 8.1 mph - N/A   Mostly Cloudy
5:15 PM 64.4 °F 57.2 °F 77% 29.91 in 10.0 mi WNW 8.1 mph - N/A   Overcast
5:34 PM 64.4 °F 57.2 °F 77% 29.92 in 10.0 mi WNW 5.8 mph - N/A   Overcast
5:51 PM 66.0 °F 59.0 °F 78% 30.02 in 10.0 mi NE 10.4 mph - N/A   Clear
6:51 PM 62.1 °F 55.9 °F 80% 29.94 in 10.0 mi Variable 3.5 mph - N/A   Mostly Cloudy
6:58 PM 62.6 °F 55.4 °F 77% 29.94 in 10.0 mi NW 3.5 mph - N/A   Scattered Clouds
7:05 PM 62.6 °F 55.4 °F 77% 29.94 in 10.0 mi West 3.5 mph - N/A   Mostly Cloudy
7:37 PM 62.6 °F 55.4 °F 77% 29.95 in 10.0 mi Calm Calm - N/A   Mostly Cloudy
7:51 PM 62.1 °F 55.9 °F 80% 29.95 in 10.0 mi WNW 4.6 mph - N/A   Overcast
8:51 PM 63.0 °F 57.9 °F 84% 30.04 in 7.0 mi East 6.9 mph - N/A   Clear
9:41 PM 62.6 °F 59.0 °F 88% 30.04 in 6.0 mi ENE 6.9 mph - N/A   Partly Cloudy
9:51 PM 63.0 °F 59.0 °F 87% 30.04 in 5.0 mi ENE 8.1 mph - N/A   Partly Cloudy
10:28 PM 64.4 °F 60.8 °F 88% 30.05 in 5.0 mi ENE 10.4 mph - N/A   Mostly Cloudy
10:51 PM 62.6 °F 60.8 °F 94% 30.05 in 4.0 mi ENE 8.1 mph - N/A   Overcast
11:11 PM 62.6 °F 59.0 °F 88% 30.05 in 4.0 mi ENE 4.6 mph - N/A   Scattered Clouds
11:32 PM 57.2 °F 53.6 °F 88% 29.98 in 10.0 mi SSW 3.5 mph - N/A   Mostly Cloudy
11:43 PM 60.8 °F 57.2 °F 88% 30.05 in 2.5 mi Calm Calm - N/A   Clear
11:51 PM 61.0 °F 57.9 °F 90% 30.05 in 2.0 mi Calm Calm - N/A   Clear